Location: Falconara Alta
(43.6167°N, 13.4000°E)
Time: 03:14:15
(UTC+00:00)

Cosmos 1980 Rocket - Pass Details

Date: 09 April 2020
Orbit: 828 x 851 km, 71.0° (Epoch: 02 June)

Event Time Altitude Azimuth Distance (km) Brightness Sun altitude
Rises 21:38:33 0° 332° (NNW) 3,388 6.4 -34.6°
Reaches altitude 10° 21:41:00 10° 331° (NNW) 2,453 5.4 -34.8°
Enters shadow 21:44:30 39° 320° (NW) 1,234 3.3 -35.0°
